Location: Toronto
(43.6672°N, 79.4170°W)
Time: 05:43:02
(UTC-04:00)

ISS - Visible Passes

Search period start: 04 August 2015 00:00
Search period end: 14 August 2015 00:00
Orbit: 401 x 403 km, 51.6° (Epoch: 03 August)

Date Brightness Start Highest point End Pass type
(mag) Time Alt. Az. Time Alt. Az. Time Alt. Az.
04 Aug -3.1 21:06:40 10° WSW 21:09:55 75° NNW 21:13:11 10° NE visible
04 Aug -0.9 22:44:04 10° WNW 22:46:45 23° NNW 22:49:26 10° NE visible
05 Aug -0.5 00:21:20 10° NW 00:23:05 19° NNW 00:23:05 19° NNW visible
05 Aug -1.3 21:50:37 10° W 21:53:31 28° NNW 21:56:25 10° NE visible
05 Aug -0.8 23:28:10 10° NW 23:30:39 20° N 23:31:46 17° NNE visible
06 Aug -0.7 22:34:51 10° NW 22:37:20 20° N 22:39:51 10° NE visible
07 Aug -0.5 00:11:38 10° NW 00:13:00 19° NNW 00:13:00 19° NNW visible
07 Aug -0.9 21:41:24 10° WNW 21:44:02 22° N 21:46:41 10° NE visible
07 Aug -1.1 23:18:35 10° NW 23:21:13 22° N 23:21:40 21° NNE visible
08 Aug -0.9 22:25:24 10° NW 22:27:54 20° N 22:30:19 10° NE visible
09 Aug -0.5 00:01:48 10° NW 00:02:54 18° NW 00:02:54 18° NW visible
09 Aug -0.8 21:32:05 10° NW 21:34:34 20° N 21:37:03 10° NE visible
09 Aug -1.6 23:08:47 10° NW 23:11:33 29° NNE 23:11:33 29° NNE visible
10 Aug -1.2 22:15:42 10° NW 22:18:24 23° NNE 22:20:13 15° NE visible
10 Aug -0.5 23:51:56 10° NW 23:52:47 17° NW 23:52:47 17° NW visible
11 Aug -1.0 21:22:31 10° NW 21:25:03 20° N 21:27:35 10° ENE visible
11 Aug -2.1 22:58:52 10° NW 23:01:27 40° N 23:01:27 40° N visible
12 Aug -1.9 22:05:48 10° NW 22:08:47 31° NNE 22:10:09 22° ENE visible
12 Aug -0.4 23:42:09 10° WNW 23:42:43 14° WNW 23:42:43 14° WNW visible
13 Aug -1.4 21:12:43 10° NW 21:15:27 24° NNE 21:18:13 10° ENE visible
13 Aug -2.4 22:48:57 10° WNW 22:51:25 48° NW 22:51:25 48° NW visible
